www.pogodaiklimat.ru

Погода и климат >> Архив погоды >> Канада >> Rankin Inlet


ПОГОДА в Rankin Inlet

  • Прогноз погоды в Rankin Inlet
  • Монитор погоды в Rankin Inlet
  • Климат города

АРХИВ ПОГОДЫ в Rankin Inlet

Время (UTC), дата Ветер
(напр.,м/с)
 
Видим.   Явления Облачность Т
(С)
Тd
(С)
f
(%)
Тe
(С)
Тes
(С)
Комфортность P
(гПа)
Po
(гПа)
Тmin
(С)
Tmax
(С)
R
(мм)
S
(см)
15 14.02 С 6 12 км ясно -31.7 -35.2 71 -45 -45 опасность
обморожения
1022.9 1018.4
18 14.02 С 5 16 км ледяные иглы {снег} ясно -29.5 -33.1 71 -42 -41 опасность
обморожения
1024.0 1019.5 -32.0 -29.5 0.0 26
21 14.02 С 4 24 км ясно -30.6 -34.3 70 -42 -42 опасность
обморожения
1024.4 1019.9
00 15.02 С 4 24 км ледяные иглы {снег} ясно -31.9 -35.2 72 -43 -43 опасность
обморожения
1025.0 1020.5 -33.1 -29.2 0.0 26
03 15.02 В 2 24 км ясно -29.3 -32.1 77 -37 -37 опасность
обморожения
1024.6 1020.1
06 15.02 В 4 24 км ледяные иглы {снег} ясно -28.7 -31.6 76 -40 -40 опасность
обморожения
1024.0 1019.5 -33.1 -28.4 0.0 110
09 15.02 В 5 16 км 10/10 100 м
[]
-27.2 -30.1 76 -39 -39 опасность
обморожения
1023.4 1018.9
12 15.02 В 6 19 км ледяные иглы {снег} 9/6 100 м
[St Ac As]
-28.1 -31.1 75 -41 -41 опасность
обморожения
1023.7 1019.2 -33.1 -28.4 0.0 26
15 15.02 В 6 3200 м 3/3 100 м
[]
-28.4 -31.5 75 -42 -42 опасность
обморожения
1022.1 1017.6
18 15.02 ЮВ 6 2000 м ледяные иглы {снег} 8/1 50 м
[Frnb Ac trans Ci fib]
-25.0 -27.9 77 -37 -37 опасность
обморожения
1020.4 1015.9 -33.1 -24.8 0.2 26
21 15.02 ЮВ 7 6000 м 8/8 50 м
[]
-23.7 -26.5 78 -36 -36 опасность
обморожения
1019.6 1015.1
00 16.02 ЮВ 10 1600 м слабый снег 6/4 50 м
[Frnb Ac As]
-22.3 -24.9 79 -37 -37 опасность
обморожения
1016.1 1011.6 -28.6 -22.3 0.2 26
03 16.02 ЮВ 13 1600 м 6/6 50 м
[]
-20.8 -23.3 80 -36 -36 опасность
обморожения
1012.9 1008.5
06 16.02 800 м слабый снег {метель} н/о -20.0 -22.3 82 -35 -35 опасность
обморожения
1010.4 1006.0 -28.6 -20.0 0.4 42
09 16.02 ЮВ 14 800 м 1/1 1500 м
[]
-19.1 -21.4 82 -34 -34 опасность
обморожения
1007.3 1002.9
12 16.02 800 м слабый снег {метель} н/о -18.1 -20.3 83 -33 -33 опасность
обморожения
1004.8 1000.4 -22.3 -20.0 0.8 27
15 16.02 ЮВ 13 200 м 1/1 600 м
[]
-17.9 -20.1 83 -32 -32 опасность
обморожения
1003.1 998.8
18 16.02 200 м слабый снег {метель} н/о -16.9 -19.0 84 -31 -31 опасность
обморожения
1002.3 998.0 -25.0 -16.9 1 28
21 16.02 ЮВ 13 800 м 4/4 1000 м
[]
-16.3 -18.4 84 -30 -30 1001.7 997.4
00 17.02 800 м слабый снег {метель} н/о -16.0 -18.1 84 -29 -29 1002.0 997.7 -20.0 -16.0 3 29
03 17.02 В 10 2400 м 8/8 600 м
[]
-15.8 -18.1 82 -28 -28 1003.2 998.9
06 17.02 ЮВ 10 2400 м слабый снег {метель} 10/4 600 м
[Sc Ac As]
-15.5 -17.6 84 -28 -28 1002.9 998.6 -20.0 -15.5 0.8 172
09 17.02 ЮВ 10 3200 м 10/0 2000 м
[]
-14.8 -16.9 84 -27 -27 1003.8 999.5
12 17.02 В 8 16 км слабый снег {метель} 9/9 1500 м
[Sc]
-17.2 -19.7 81 -29 -29 1005.3 1001.0 -17.2 -15.5 0.6 29
15 17.02 В 8 9000 м 6/6 1500 м
[]
-18.1 -20.5 81 -30 -30 1005.9 1001.6
18 17.02 В 8 16 км слабый снег 6/6 1500 м
[Sc]
-17.1 -19.6 81 -29 -29 1006.6 1002.3 -18.3 -14.8 0.2 29
21 17.02 В 8 16 км 6/6 1500 м
[]
-17.2 -19.4 83 -29 -29 1007.6 1003.3
00 18.02 В 8 9000 м метель {снег} 6/0 1500 м
[As trans]
-18.7 -20.9 83 -31 -31 опасность
обморожения
1007.4 1003.1 -18.8 -16.6 0.0 29
03 18.02 В 8 3600 м 3/0
[]
-19.0 -21.2 83 -31 -31 опасность
обморожения
1008.5 1004.1
06 18.02 В 8 3200 м метель ясно -19.5 -21.8 82 -32 -32 опасность
обморожения
1009.3 1004.9 -19.5 -14.8 11
09 18.02 В 8 3200 м ясно -19.8 -22.1 82 -32 -32 опасность
обморожения
1009.7 1005.3
12 18.02 В 7 4000 м метель ясно -20.6 -23.1 80 -33 -33 опасность
обморожения
1011.5 1007.1 -20.6 -14.8 29
15 18.02 В 7 6000 м 5/5 100 м
[]
-20.3 -22.6 82 -32 -32 опасность
обморожения
1012.8 1008.4
18 18.02 В 7 6000 м ледяные иглы 3/1 600 м
[Sc Ac trans Ci fib]
-18.1 -20.8 79 -29 -29 1013.8 1009.4 -20.8 -18.1 0.0 29
21 18.02 В 6 16 км 4/0
[]
-18.2 -20.7 81 -28 -28 1014.7 1010.3
00 19.02 В 6 16 км ледяные иглы {снег} 4/0
[Ci fib]
-20.8 -23.0 82 -32 -32 опасность
обморожения
1016.7 1012.3 -20.8 -17.9 0.0 28
03 19.02 В 6 24 км ясно -21.8 -24.0 82 -33 -33 опасность
обморожения
1017.5 1013.1
06 19.02 В 4 24 км ледяные иглы {снег} ясно -21.6 -23.8 82 -30 -30 1018.2 1013.8 -22.1 -17.9 0.0 111
09 19.02 В 4 24 км ясно -22.6 -25.0 81 -32 -32 опасность
обморожения
1019.5 1015.1
12 19.02 В 3 16 км ледяные иглы {снег} ясно -25.3 -28.1 77 -33 -33 опасность
обморожения
1020.0 1015.5 -25.3 -17.9 0.0 29
15 19.02 В 3 400 м 1/0
[]
-25.2 -28.0 77 -34 -34 опасность
обморожения
1020.7 1016.2
18 19.02 В 3 24 км ледяные иглы {снег, туман} 9/0
[Ac trans Ci fib]
-21.6 -24.0 81 -30 -29 1020.6 1016.2 -26.9 -21.4 0.0 28
21 19.02 ЮВ 2 24 км 9/9 1500 м
[]
-19.4 -21.7 82 -24 -24 1021.1 1016.7
00 20.02 В 2 8000 м слабый снег 10/10 600 м
[Sc]
-18.6 -20.8 83 -24 -24 1021.9 1017.4 -26.9 -18.5 0.2 28
03 20.02 В 3 16 км 10/10 1000 м
[]
-17.9 -20.0 84 -24 -24 1022.0 1017.5
06 20.02 В 2 12 км слабый снег 10/10 1000 м
[Sc]
-17.1 -19.2 84 -21 -21 1023.1 1018.7 -26.9 -16.8 0.4 29
09 20.02 СВ 2 16 км 10/0 2000 м
[]
-16.6 -18.6 84 -22 -22 1023.7 1019.3
12 20.02 В 3 24 км слабый снег 6/0 2000 м
[Ac As]
-20.5 -22.8 82 -28 -28 1024.5 1020.1 -21.1 -16.8 0.0 29
15 20.02 В 5 24 км 9/9 50 м
[]
-21.3 -23.8 80 -31 -31 опасность
обморожения
1024.9 1020.5
18 20.02 В 5 24 км {снег} 5/1 50 м
[St Ac As Ci fib]
-20.3 -22.6 82 -30 -29 1025.2 1020.8 -22.1 -16.6 0.2 29
21 20.02 В 6 8000 м 5/0 2000 м
[]
-19.4 -21.7 82 -30 -30 1024.5 1020.1
00 21.02 В 7 24 км ледяные иглы 4/0
[Ac trans Cc]
-20.6 -23.1 80 -33 -33 опасность
обморожения
1024.0 1019.5 -22.1 -19.1 0.0 29
03 21.02 В 9 6000 м 5/0
[]
-21.7 -24.1 81 -35 -35 опасность
обморожения
1022.7 1018.2
06 21.02 В 11 3200 м ледяные иглы {снег, метель} 4/0
[Ac As]
-22.1 -24.7 79 -37 -37 опасность
обморожения
1021.3 1016.9 -22.2 -16.6 0.0 61
09 21.02 В 10 4000 м 6/0
[]
-21.5 -23.9 81 -36 -36 опасность
обморожения
1019.5 1015.1

 

Местоположение метеостанции Rankin Inlet (Канада): широта 62.82 долгота -92.11 высота над уровнем моря 31 м.

В архиве по умолчанию представлена погода в Rankin Inlet за последнюю неделю. Архивные данные за месяц целиком и за предыдущие месяцы, начиная с января 2011 года, Вы можете получить, выбрав интересующий диапазон дат из раскрывающегося списка и нажав кнопку "Ввод!".

Внимание! Время в таблицах - всемирное. Для получения местного времени необходимо прибавить поправку, которая в Rankin Inlet равна -6 ч.

Смотрите также архив погоды в соседних городах и на ближайших метеорологических станциях:

Погода в Arviat Climate (Канада) (217 км)
Погода в Arviat (Канада) (217 км)
Погода в Arviat Airport (Канада) (218 км)
Погода в Baker Lake Climate (Канада) (255 км)
Погода в Baker Lake Airport (Канада) (256 км)
Погода в Wager Bay (Канада) (364 км)
Погода в Back River MAPS (Канада) (419 км)
Погода в Coral Harbour Arpt (Канада) (460 км)
Погода в Churchill Climate (Канада) (468 км)
Погода в Dubawnt Lake (Канада) (486 км)

Пояснения к столбцам:

Ветер - указаны скорость ветра в м/с - средняя за 10 мин, порывы в срок и между сроками (в фигурных скобках) и направление, откуда дует ветер: С - северный, СВ - северо-восточный, В - восточный, ЮВ - юго-восточный, Ю - южный, ЮЗ - юго-западный, З - западный, СЗ - северо-западный.
Видимость - горизонтальная дальность видимости в метрах или километрах. При видимости от 1 до 10 км при отсутствии осадков обычно наблюдается дымка, при ухудшении видимости до 1 км и менее - туман. В сухую погоду видимость может ухудшаться дымом, пылью или мглою.
Явления - указаны атмосферные явления, наблюдавшиеся в срок или в последний час перед сроком; фигурными скобками обозначены явления, наблюдавшиеся между сроками (за 1-3 часа до срока); квадратными скобками обозначены град или гололедные отложения с указанием их диаметра в мм.
Облачность - указаны через наклонную черту общая и нижняя облачность в баллах и высота нижней границы облаков в метрах; квадратными скобками обозначены формы облаков: Ci - перистые, Cs - перисто-слоистые, Cc - перисто-кучевые, Ac - высококучевые, As - высокослоистые, Sc - слоисто-кучевые, Ns - слоисто-дождевые, Cu - кучевые, Cb - кучево-дождевые. Подробнее классификацию облаков см. в Атласе облаков (PDF).
T - Температура воздуха - температура, измеренная на высоте 2 м над землей.
Td - Температура точки росы - температура, при понижении до которой содержащийся в воздухе водяной пар достигнет насыщения.
f - Относительная влажность воздуха - влажноcть воздуха, измеренная на высоте 2 м над землей.
Te - Эффективная температура - температура, которую ощущает одетый по сезону человек в тени. Характеристика душности погоды. При расчете учитывается влияние влажности воздуха и скорости ветра на теплоощущения человека.
Tes - Эффективная температура на солнце - температура, которую ощущает человек, с поправкой на солнечный нагрев. Характеристика знойности погоды. Зависит от высоты солнца над горизонтом, облачности и скорости ветра. Ночью, в пасмурную погоду, а также при ветре 12 м/с и более поправка равна нулю.
P - Атмосферное давление - приведенное к уровню моря атмосферное давление.
Po - Атмосферное давление - измеренное на уровне метеостанции атмосферное давление.
Tmin - Минимальная температура - минимум температуры воздуха на высоте 2 м над землей.
Tmax - Максимальная температура - максимум температуры воздуха на высоте 2 м над землей.
R - Количество осадков - Количество выпавших осадков, мм. При наведении курсора мыши на число - период времени, за который выпало указанное количество осадков.
S - Снежный покров - Высота снежного покрова, см. При наведении курсора мыши на число - состояние снежного покрова и степень покрытия местности в баллах.